| time (UTC) | temp F | wind direction | speed MPH | gust MPH | rain 1hr in | rain 24hr in | rain mn in | humidity % | barometer mb |
| 20260503232433 | 55 | 267 | 0.0 | 8.0 | 0.00 | 0.00 | 0.00 | 54 | 1010.2 |
| 20260503231453 | 55 | 274 | 3.0 | 8.0 | 0.00 | 0.00 | 0.00 | 52 | 1010.5 |
| 20260503230433 | 55 | 328 | 0.0 | 1.0 | 0.00 | 0.00 | 0.00 | 50 | 1010.3 |
| 20260503225433 | 55 | 258 | 0.0 | 4.0 | 0.00 | 0.00 | 0.00 | 49 | 1010.5 |
| 20260503224513 | 56 | 0.0 | 0.0 | 0.00 | 0.00 | 0.00 | 49 | 1009.9 | |
| 20260503223433 | 56 | 0.0 | 0.0 | 0.00 | 0.00 | 0.00 | 49 | 1010.0 | |
| 20260503222433 | 56 | 0.0 | 0.0 | 0.00 | 0.00 | 0.00 | 48 | 1009.6 | |
| 20260503221433 | 56 | 5 | 0.0 | 2.0 | 0.00 | 0.00 | 0.00 | 49 | 1010.1 |
| 20260503220433 | 56 | 0.0 | 0.0 | 0.00 | 0.00 | 0.00 | 49 | 1010.1 | |
| 20260503215433 | 56 | 38 | 0.0 | 2.0 | 0.00 | 0.00 | 0.00 | 49 | 1010.2 |
| 20260503214433 | 56 | 264 | 0.0 | 7.0 | 0.00 | 0.00 | 0.00 | 49 | 1010.0 |
| 20260503213433 | 56 | 300 | 0.0 | 4.0 | 0.00 | 0.00 | 0.00 | 50 | 1010.3 |
| 20260503212433 | 55 | 0.0 | 0.0 | 0.00 | 0.00 | 0.00 | 50 | 1010.0 | |
| 20260503211433 | 55 | 31 | 0.0 | 5.0 | 0.00 | 0.00 | 0.00 | 51 | 1010.3 |
| 20260503210433 | 55 | 0.0 | 0.0 | 0.00 | 0.00 | 0.00 | 50 | 1010.1 | |
| 20260503205513 | 56 | 0.0 | 0.0 | 0.00 | 0.00 | 0.00 | 49 | 1010.3 | |
| 20260503204433 | 56 | 136 | 0.0 | 4.0 | 0.00 | 0.00 | 0.00 | 48 | 1010.4 |
| 20260503203433 | 56 | 309 | 2.0 | 11.0 | 0.00 | 0.00 | 0.00 | 47 | 1010.6 |
| 20260503202433 | 56 | 330 | 0.0 | 7.0 | 0.00 | 0.00 | 0.00 | 46 | 1010.4 |
| 20260503201433 | 57 | 292 | 0.0 | 4.0 | 0.00 | 0.00 | 0.00 | 45 | 1010.8 |
| 20260503200433 | 55 | 269 | 1.0 | 7.0 | 0.00 | 0.00 | 0.00 | 45 | 1010.8 |
| 20260503195433 | 54 | 319 | 1.0 | 10.0 | 0.00 | 0.00 | 0.00 | 44 | 1011.1 |
| 20260503194433 | 55 | 324 | 0.0 | 5.0 | 0.00 | 0.00 | 0.00 | 47 | 1010.8 |
| 20260503193513 | 54 | 333 | 0.0 | 5.0 | 0.00 | 0.00 | 0.00 | 46 | 1011.2 |
| 20260503192453 | 55 | 324 | 0.0 | 8.0 | 0.00 | 0.00 | 0.00 | 47 | 1011.2 |
| 20260503191433 | 56 | 265 | 2.0 | 11.0 | 0.00 | 0.00 | 0.00 | 45 | 1011.2 |
| 20260503190433 | 55 | 178 | 0.0 | 7.0 | 0.00 | 0.00 | 0.00 | 46 | 1011.1 |
| 20260503185433 | 56 | 355 | 0.0 | 2.0 | 0.00 | 0.00 | 0.00 | 44 | 1011.4 |
| 20260503184441 | 56 | 282 | 1.0 | 10.0 | 0.00 | 0.00 | 0.00 | 42 | 1011.4 |
| 20260503183453 | 56 | 0.0 | 0.0 | 0.00 | 0.00 | 0.00 | 45 | 1011.6 | |
| 20260503182433 | 56 | 42 | 0.0 | 8.0 | 0.00 | 0.00 | 0.00 | 46 | 1011.6 |
| 20260503181433 | 55 | 0.0 | 0.0 | 0.00 | 0.00 | 0.00 | 44 | 1011.9 | |
| 20260503180433 | 55 | 294 | 0.0 | 2.0 | 0.00 | 0.00 | 0.00 | 44 | 1012.1 |
| 20260503175433 | 54 | 312 | 0.0 | 4.0 | 0.00 | 0.00 | 0.00 | 44 | 1012.1 |
| 20260503174433 | 54 | 333 | 0.0 | 2.0 | 0.00 | 0.00 | 0.00 | 43 | 1012.2 |
| 20260503173433 | 54 | 0.0 | 0.0 | 0.00 | 0.00 | 0.00 | 43 | 1012.3 | |
| 20260503172433 | 53 | 337 | 0.0 | 4.0 | 0.00 | 0.00 | 0.00 | 42 | 1012.5 |
| 20260503171433 | 54 | 332 | 0.0 | 4.0 | 0.00 | 0.00 | 0.00 | 43 | 1012.4 |
| 20260503170433 | 53 | 331 | 0.0 | 1.0 | 0.00 | 0.00 | 0.00 | 42 | 1012.7 |
| 20260503150433 | 50 | 335 | 0.0 | 4.0 | 0.00 | 0.00 | 0.00 | 46 | 1014.1 |
| 20260503130434 | 45 | 0.0 | 0.0 | 0.00 | 0.00 | 0.00 | 72 | 1014.6 | |
| 20260503110433 | 39 | 0.0 | 0.0 | 0.00 | 0.00 | 0.00 | 89 | 1014.1 | |
| 20260503090433 | 39 | 0.0 | 0.0 | 0.00 | 0.00 | 0.00 | 82 | 1014.0 | |
| 20260503081433 | 40 | 0.0 | 0.0 | 0.00 | 0.00 | 0.00 | 88 | 1014.1 | |
| 20260503080433 | 40 | 0.0 | 0.0 | 0.00 | 0.00 | 0.00 | 89 | 1013.9 | |
| 20260503072433 | 40 | 0.0 | 0.0 | 0.00 | 0.00 | 0.00 | 89 | 1013.9 | |
| 20260503071433 | 40 | 0.0 | 0.0 | 0.00 | 0.00 | 0.00 | 89 | 1014.1 | |
| 20260503070433 | 40 | 0.0 | 0.0 | 0.00 | 0.00 | 0.00 | 89 | 1013.7 | |
| 20260503054433 | 40 | 0.0 | 0.0 | 0.00 | 0.00 | 0.00 | 89 | 1014.1 | |
| 20260503053433 | 40 | 0.0 | 0.0 | 0.00 | 0.00 | 0.00 | 88 | 1014.3 | |
| 20260503052433 | 40 | 0.0 | 0.0 | 0.00 | 0.00 | 0.00 | 88 | 1014.3 | |
| 20260503051441 | 40 | 0.0 | 0.0 | 0.00 | 0.00 | 0.00 | 88 | 1014.6 | |
| 20260503050433 | 40 | 0.0 | 0.0 | 0.00 | 0.00 | 0.00 | 87 | 1014.5 | |
| 20260503045433 | 40 | 0.0 | 0.0 | 0.00 | 0.00 | 0.00 | 87 | 1014.6 | |
| 20260503044433 | 40 | 0.0 | 0.0 | 0.00 | 0.00 | 0.00 | 87 | 1014.6 | |
| 20260503043433 | 40 | 0.0 | 0.0 | 0.00 | 0.00 | 0.00 | 88 | 1014.8 | |
| 20260503042433 | 40 | 0.0 | 0.0 | 0.00 | 0.00 | 0.00 | 88 | 1014.7 | |
| 20260503041433 | 40 | 0.0 | 0.0 | 0.00 | 0.00 | 0.00 | 87 | 1014.9 | |
| 20260503040513 | 40 | 0.0 | 0.0 | 0.00 | 0.00 | 0.00 | 88 | 1014.8 | |
| 20260503035432 | 39 | 0.0 | 0.0 | 0.00 | 0.00 | 0.00 | 89 | 1015.1 | |
| 20260503034452 | 39 | 0.0 | 0.0 | 0.00 | 0.00 | 0.00 | 90 | 1014.9 | |
| 20260503033433 | 39 | 0.0 | 0.0 | 0.00 | 0.00 | 0.00 | 93 | 1014.9 | |
| 20260503032432 | 39 | 0.0 | 0.0 | 0.00 | 0.00 | 0.00 | 92 | 1014.9 | |
| 20260503031512 | 38 | 0.0 | 0.0 | 0.00 | 0.00 | 0.00 | 92 | 1014.9 | |
| 20260503030432 | 38 | 0.0 | 0.0 | 0.00 | 0.02 | 0.00 | 92 | 1014.9 | |
| 20260503025432 | 38 | 0.0 | 0.0 | 0.00 | 0.02 | 0.00 | 92 | 1015.0 | |
| 20260503024432 | 37 | 0.0 | 0.0 | 0.00 | 0.02 | 0.00 | 93 | 1015.3 | |
| 20260503023432 | 36 | 0.0 | 0.0 | 0.00 | 0.03 | 0.00 | 93 | 1015.2 | |
| 20260503022432 | 36 | 0.0 | 0.0 | 0.00 | 0.03 | 0.00 | 91 | 1015.4 | |
| 20260503021452 | 36 | 0.0 | 0.0 | 0.00 | 0.04 | 0.00 | 90 | 1015.3 | |
| 20260503020452 | 37 | 0.0 | 0.0 | 0.00 | 0.04 | 0.00 | 88 | 1015.6 | |
| 20260503015432 | 37 | 0.0 | 0.0 | 0.00 | 0.05 | 0.00 | 87 | 1015.1 | |
| 20260503014432 | 38 | 0.0 | 0.0 | 0.00 | 0.07 | 0.00 | 86 | 1015.5 | |
| 20260503013452 | 39 | 0.0 | 0.0 | 0.00 | 0.09 | 0.00 | 85 | 1015.3 | |
| 20260503012453 | 39 | 0.0 | 0.0 | 0.00 | 0.09 | 0.00 | 84 | 1015.5 | |
| 20260503011432 | 40 | 0.0 | 0.0 | 0.00 | 0.10 | 0.00 | 84 | 1015.4 | |
| 20260503010452 | 40 | 0.0 | 0.0 | 0.00 | 0.11 | 0.00 | 82 | 1015.6 | |
| 20260503005432 | 41 | 0.0 | 0.0 | 0.00 | 0.12 | 0.00 | 81 | 1015.3 | |
| 20260503004432 | 41 | 0.0 | 0.0 | 0.00 | 0.14 | 0.00 | 80 | 1015.3 | |
| 20260503003432 | 41 | 0.0 | 0.0 | 0.00 | 0.15 | 0.00 | 79 | 1015.0 | |
| 20260503002432 | 41 | 0.0 | 0.0 | 0.00 | 0.16 | 0.00 | 78 | 1015.3 | |
| 20260503001433 | 41 | 0.0 | 0.0 | 0.00 | 0.16 | 0.00 | 76 | 1014.8 | |
| 20260503000432 | 42 | 0.0 | 0.0 | 0.00 | 0.17 | 0.00 | 75 | 1014.9 | |
| 20260502235432 | 42 | 0.0 | 0.0 | 0.00 | 0.18 | 0.00 | 73 | 1014.9 | |
| 20260502234432 | 43 | 0.0 | 0.0 | 0.00 | 0.18 | 0.00 | 71 | 1014.7 | |
| 20260502233432 | 43 | 0.0 | 0.0 | 0.00 | 0.20 | 0.00 | 69 | 1014.5 |